Other Public Products
Issued by NWS Grand Forks, ND

Home | Current Version | Previous Version | Graphics & Text | Print | Product List | Glossary On
Versions: 1 2 3 4 5 6 7 8 9 10 11 12 13 14 15 16 17 18 19 20 21 22 23 24 25 26 27 28 29 30 31 32 33 34 35 36 37 38 39 40 41 42 43 44 45 46 47 48 49 50
000
FPUS83 KFGF 281410
OPUFGF
PRAIRIE TO PINES WEATHER ROUNDUP
NATIONAL WEATHER SERVICE EASTERN NORTH DAKOTA/GRAND FORKS ND
900 AM CDT THU MAY 28 2015

 **SATELLITE DATA USED TO AUGMENT SKY COVER AT AUTOMATED STATIONS**
 *****  WEATHER ACROSS EASTERN NORTH DAKOTA  *****

CITY           SKY/WX    TMP DP  RH WIND       PRES   REMARKS
GRAND FORKS    CLOUDY    60  58  92 SE10      29.90F
GRAND FORKS AF PTSUNNY   60  57  92 E7        29.90F
GRAND CITY NWS   N/A     57 N/A N/A E12         N/A
BUXTON         NOT AVBL
DEVILS LAKE    MOSUNNY   63  55  77 SE13      29.88F
FARGO          LGT RAIN  63  59  87 SE9       29.91F FOG
WAHPETON ARPT  PTSUNNY   68  55  64 E8        29.93F
$$

 *****  WEATHER ACROSS CENTRAL AND WESTERN NORTH DAKOTA  *****

CITY           SKY/WX    TMP DP  RH WIND       PRES   REMARKS
JAMESTOWN      PTSUNNY   64  59  83 SE13      29.88F
BISMARCK       CLOUDY    63  58  83 SW7       29.88S
MINOT          CLOUDY    60  57  89 CALM      29.84F
MINOT AFB      CLOUDY    61  61 100 S5        29.84S
GARRISON         N/A     61  58  90 SW8       29.85F
WILLISTON      SUNNY     60  56  86 SW7       29.88S
DICKINSON      MOSUNNY   58  55  90 NW6       29.88F
HETTINGER      CLOUDY    57  54  89 NW6       29.92S
$$

 *****  OTHER OBSERVATIONS NORTHEAST NORTH DAKOTA  *****

CITY           SKY/WX    TMP DP  RH WIND       PRES   REMARKS
WALHALLA         N/A     54  54 100 MISG      29.92F
LANGDON        CLOUDY    57  55  94 E13       29.91F
CAVALIER       CLOUDY    57  55  94 NE3       29.91F
GRAFTON        CLOUDY    57  57 100 E7        29.91F
CANDO          PTSUNNY   64  59  82 SE15      29.88F
FORT TOTTEN      N/A     63  58  85 SE7       29.95S
ROLLA          PTSUNNY   57  57 100 SE9       29.90F
RUGBY          NOT AVBL
 ***** THE ABOVE OBSERVATIONS ARE NON NWS ARE NOT QUALITY
        CONTROLLED AND MAY MIS-REPORT RAIN FOR SNOW...
$$

 *****  OTHER OBSERVATIONS SOUTHEAST NORTH DAKOTA *****

CITY           SKY/WX    TMP DP  RH WIND       PRES   REMARKS
COOPERSTOWN    NOT AVBL
VALLEY CITY    FAIR      63  63 100 SE7       29.91S
OAKES            N/A     66  63  88 S13G18    29.91S
GWINNER        NOT AVBL
SHEYENNE NWR     N/A     61  60  95 SE9       29.95S
BUFFALO        NOT AVBL
WYNDMERE         N/A     64  61  88 SE9         N/A
 ***** THE ABOVE OBSERVATIONS ARE NON NWS ARE NOT QUALITY
       CONTROLLED AND MAY MIS-REPORT RAIN FOR SNOW...
$$

  *****  WEATHER ACROSS NORTHERN MINNESOTA  *****

CITY           SKY/WX    TMP DP  RH WIND       PRES   REMARKS
FLAG ISLAND    LGT RAIN  55  52  88 SE6       29.99F
WARROAD        RAIN      54  50  87 CALM      29.99F
ROSEAU         RAIN      55  50  82 E6        29.97F
HALLOCK        DRIZZLE   57  55  94 NE5       29.91F
THF RVR FALLS  CLOUDY    57  55  94 E12       29.95F
HALSTAD        NOT AVBL
FOSSTON        RAIN      57  54  88 E3        29.97F
BAUDETTE       RAIN      54  51  90 E6        30.00S
WASKISH        RAIN      57  54  88 CALM      30.01R
CROOKSTON      LGT RAIN  59  57  94 E8        29.93F
$$
  *****  WEATHER ACROSS CENTRAL AND WEST MINNESOTA  *****

CITY           SKY/WX    TMP DP  RH WIND       PRES   REMARKS
BEMIDJI        LGT RAIN  56  55  93 NE5       29.99F
PARK RAPIDS    CLOUDY    68  53  58 SE9       29.97F
WADENA         CLOUDY    70  54  56 S12       29.97F
DETROIT LAKES  CLOUDY    64  55  72 SE3       29.97F
MOORHEAD       DRIZZLE   63  57  82 E8        29.92S
FERGUS FALLS   PTSUNNY   72  55  56 S9        29.95F
ELBOW LAKE     PTSUNNY   70  56  61 S13       29.97S
MORRIS MN      MOSUNNY   72  55  56 S13       29.96F
STAPLES        PTSUNNY   68  54  60 S9        29.99F
WHEATON        PTSUNNY   70  55  60 S8        29.96S
$$
  *****  WEATHER ELSEWHERE ACROSS MINNESOTA  *****

CITY           SKY/WX    TMP DP  RH WIND       PRES   REMARKS
DULUTH         MOSUNNY   50  42  74 E16       30.09F
INTRNTL FALLS  CLOUDY    59  48  67 SE9       30.00F
ELY            NOT AVBL
CLOQUET        MOSUNNY   48  39  71 E12       30.08F
BRAINERD       CLOUDY    63  54  72 SE7       30.02F
HIBBING        PTSUNNY   56  46  69 SE9       30.05F
ALEXANDRIA     MOSUNNY   68  53  58 S8        30.01S
SAINT CLOUD    PTSUNNY   69  57  65 S7        30.03S
MINNEAPOLIS    PTSUNNY   73  54  51 S6        30.07R
$$

  *****  WEATHER ACROSS SOUTH DAKOTA  *****

CITY           SKY/WX    TMP DP  RH WIND       PRES   REMARKS
SIOUX FALLS    CLOUDY    68  54  60 S12       30.03R
BROOKINGS      CLOUDY    66  54  63 SW10      30.05R
WATERTOWN      CLOUDY    63  59  87 S15       29.99R
HURON            N/A    N/A N/A N/A MISG      29.94F
SISSETON         N/A     69  57  65 SW12      29.92S
ABERDEEN       MOSUNNY   69  61  75 S14       29.91F
MITCHELL       MOSUNNY   71  58  63 SE16      29.97F
PIERRE         MOSUNNY   66  58  75 S12       29.89F
MOBRIDGE       MOSUNNY   63  59  87 S8        29.87F
RAPID CITY     SUNNY     60  55  83 N3        29.94R
$$

  *****  SOME WEATHER IN NEARBY STATES *****

CITY           SKY/WX    TMP DP  RH WIND       PRES   REMARKS
GLASGOW MT     PTSUNNY   57  52  83 NW9       29.92R
GREAT FALLS MT PTSUNNY   54  48  80 SW7       30.04R
CHEYENNE WY    CLOUDY    51  44  77 W3        30.10S
SCOTTSBLUFF NE MOSUNNY   60  55  83 CALM      30.01R
OMAHA NE       CLOUDY    68  57  68 S10       30.06F
DES MOINES IA  PTSUNNY   70  58  65 S9        30.12F
DAVENPORT IA   MOSUNNY   72  59  63 S10       30.20R
CHICAGO IL     MOSUNNY   71  56  58 CALM      30.20S
EAU CLAIRE WI  SUNNY     71  59  65 S6        30.10S
LA CROSSE WI   SUNNY     71  59  65 S8        30.14R
$$

  *****  SOME NATIONAL WEATHER *****

CITY           SKY/WX    TMP DP  RH WIND       PRES   REMARKS
LA GUARDIA NY  PTSUNNY   71  63  75 S8        30.17S
RALEIGH NC     CLOUDY    73  68  83 NW3       30.25R
ATLANTA GA     CLOUDY    72  65  78 E9        30.23S
NEW ORLEANS LA PTSUNNY   80  71  74 VRB3      30.12R
OKLAHOMA CITY  CLOUDY    65  62  90 CALM      30.03R
ALBUQUERQUE NM MOSUNNY   61  36  39 CALM      30.14R
SALT LAKE CITY LGT RAIN  52  48  86 SE12      30.10F
LOS ANGELES CA CLOUDY    59  55  87 S5        29.99R
BOISE ID       SUNNY     55  45  68 S5        30.08R
SEATTLE WA     MOSUNNY   56  53  90 CALM      30.09R
$$

*** WEATHER ACROSS MANITOBA...SASKATCHEWAN AND ONTARIO ***
                ***ONTARIO***

CITY           SKY/WX    TMP DP  RH WIND       PRES   REMARKS
GERALDTON      MOSUNNY   48  36  61 E13       30.24S
THUNDER BAY    PTSUNNY   50  41  71 E13       30.21S
SIOUX LOOKOUT  CLOUDY    52  41  66 SE12G18   30.07F
TORONTO        MOSUNNY   70  54  56 N20G25    30.21R
BIG TROUT LK   SUNNY     43  32  65 E7        30.23F
PICKLE LAKE    PTSUNNY   50  34  53 SE12G18   30.17F
DRYDEN         PTSUNNY   54  45  71 E7        30.03F
KENORA         LGT RAIN  54  50  87 S9        30.02R
$$
                *** MANITOBA***

CITY           SKY/WX    TMP DP  RH WIND       PRES   REMARKS
BRANDON        LGT RAIN  52  46  82 E8        29.92F
DAUPHIN        LGT RAIN  48  45  87 W5        29.91F
ISLAND LAKE    PTSUNNY   52  32  46 E6        30.04F
PILOT MOUND      N/A     55  54  94 E13         N/A
THE PAS        LGT RAIN  46  41  81 NE3       29.91R
THOMPSON       LGT RAIN  39  37  93 NE6       30.05F
WINNIPEG       LGT RAIN  55  54  94 SE6       29.94F
LYNN LAKE      LGT SNOW  32  32 100 NE23G31   30.08R WCI  19
CHURCHILL      CLOUDY    30  21  69 E6        30.36S WCI  24
GILLAM         SNOW      30  25  80 SE13G21   30.24S VSB 1/2 WCI  20
$$
                ***SASKATCHEWAN***

CITY           SKY/WX    TMP DP  RH WIND       PRES   REMARKS
ESTEVAN        CLOUDY    59  57  94 NE6       29.88F FOG
KINDERSLEY     CLOUDY    50  46  87 N20G29    30.03R
LLOYDMINSTER   PTSUNNY   45  37  76 N23G32    30.14R
PRINCE ALBERT  CLOUDY    48  45  87 N14G23    29.99R
REGINA         CLOUDY    59  54  82 SE7       29.92F


USA.gov is the U.S. government's official web portal to all federal, state and local government web resources and services.